GW5236 Weather Reports


time (UTC)temp
C
wind
direction
speed
KPH
gust
KPH
rain 1hr
cm
rain 24hr
cm
rain mn
cm
humidity
%
barometer
mb
20260507021005 6 248 0.0 0.0 0.00 1.17 0.79 83 1014.3
20260507020506 6 248 0.0 0.0 0.00 1.19 0.79 82 1014.3
20260507015504 6 248 0.0 0.0 0.00 1.24 0.79 78 1014.2
20260507015006 6 248 0.0 0.0 0.00 1.27 0.79 77 1014.2
20260507014526 7 248 0.0 0.0 0.00 1.30 0.79 76 1014.1
20260507014005 7 248 0.0 0.0 0.00 1.32 0.79 75 1014.2
20260507013506 7 248 0.0 0.0 0.00 1.32 0.79 73 1014.2
20260507013015 8 248 0.0 0.0 0.00 1.37 0.79 71 1014.1
20260507012506 8 248 0.0 0.0 0.00 1.40 0.79 70 1014.1
20260507012008 8 248 0.0 0.0 0.00 1.42 0.79 70 1014.1
20260507011516 9 248 0.0 0.0 0.00 1.47 0.79 68 1014.0
20260507011010 9 248 0.0 0.0 0.00 1.52 0.79 66 1014.0
20260507010020 10 248 0.0 3.2 0.00 1.60 0.79 60 1013.9
20260507005505 10 248 0.0 3.2 0.00 1.63 0.79 60 1013.8
20260507005008 10 248 0.0 3.2 0.00 1.65 0.79 59 1013.6
20260507004520 10 248 0.0 3.2 0.00 1.68 0.79 58 1013.6
20260507004010 10 261 1.6 3.2 0.00 1.70 0.79 57 1013.5
20260507003507 10 250 0.0 4.8 0.00 1.73 0.79 57 1013.4
20260507003021 10 252 0.0 4.8 0.00 1.75 0.79 57 1013.4
20260507002503 11 259 1.6 4.8 0.00 1.78 0.79 56 1013.3
20260507002007 11 263 0.0 11.3 0.00 1.80 0.79 56 1013.3
20260507001521 11 240 0.0 11.3 0.00 1.83 0.79 56 1013.3
20260507001012 11 269 1.6 11.3 0.00 1.85 0.79 55 1013.2
20260507000026 11 298 4.8 6.4 0.00 1.93 0.79 55 1013.2
20260506235505 11 234 0.0 3.2 0.00 1.96 0.79 58 1013.3
20260506234521 11 261 1.6 4.8 0.00 1.98 0.79 55 1013.2
20260506234006 11 276 0.0 3.2 0.00 1.98 0.79 57 1013.1
20260506233505 11 298 1.6 4.8 0.00 2.01 0.79 56 1013.1
20260506233021 11 264 0.0 4.8 0.00 2.03 0.79 55 1013.1
20260506232505 11 271 1.6 8.0 0.00 2.03 0.79 55 1013.1
20260506232006 11 255 3.2 9.7 0.00 2.06 0.79 53 1013.3
20260506231514 11 284 4.8 12.9 0.00 2.11 0.79 52 1013.3
20260506231008 11 244 3.2 14.5 0.00 2.11 0.79 51 1013.4
20260506230507 11 294 4.8 14.5 0.00 2.13 0.79 52 1013.5
20260506230022 11 267 3.2 12.9 0.00 2.16 0.79 54 1013.6
20260506225510 11 288 4.8 12.9 0.00 2.16 0.79 52 1013.6
20260506225008 11 296 3.2 11.3 0.00 2.18 0.79 54 1013.6
20260506224521 11 281 4.8 14.5 0.00 2.18 0.79 55 1013.7
20260506224008 11 253 4.8 14.5 0.00 2.21 0.79 53 1013.6
20260506223508 12 258 3.2 8.0 0.00 2.21 0.79 53 1013.6
20260506223021 12 209 3.2 8.0 0.00 2.21 0.79 52 1013.5
20260506222505 12 131 1.6 11.3 0.00 2.21 0.79 54 1013.6
20260506222006 11 260 4.8 11.3 0.00 2.24 0.79 51 1013.6
20260506221522 12 259 3.2 9.7 0.00 2.24 0.79 53 1013.6
20260506221014 12 259 4.8 9.7 0.00 2.26 0.79 53 1013.4
20260506220508 12 244 1.6 9.7 0.00 2.29 0.79 53 1013.3
20260506220021 12 263 1.6 9.7 0.00 2.29 0.79 50 1013.4
20260506215511 12 261 3.2 9.7 0.00 2.29 0.79 51 1013.3
20260506215008 12 277 1.6 9.7 0.00 2.29 0.79 51 1013.2
20260506214520 12 238 4.8 14.5 0.00 2.31 0.79 49 1013.2
20260506213511 12 309 4.8 11.3 0.00 2.31 0.79 49 1013.1
20260506212507 12 265 6.4 11.3 0.00 2.34 0.79 53 1012.9
20260506212009 12 238 3.2 11.3 0.00 2.34 0.79 55 1012.9
20260506211523 12 271 1.6 11.3 0.00 2.34 0.79 56 1012.8
20260506211006 12 321 3.2 11.3 0.00 2.36 0.79 55 1012.9
20260506210508 12 290 4.8 11.3 0.00 2.39 0.79 55 1012.9
20260506210025 12 276 3.2 12.9 0.00 2.44 0.79 54 1013.0
20260506205511 12 294 1.6 19.3 0.00 2.49 0.79 55 1013.0
20260506205008 12 284 4.8 19.3 0.00 2.57 0.79 53 1013.0
20260506204524 12 245 4.8 14.5 0.00 2.64 0.79 55 1013.0
20260506204006 12 253 1.6 16.1 0.00 2.77 0.79 52 1012.9
20260506203508 12 271 4.8 16.1 0.00 2.77 0.79 52 1012.8
20260506203022 12 287 3.2 11.3 0.00 2.77 0.79 52 1012.8
20260506202509 12 309 3.2 14.5 0.00 2.82 0.79 54 1012.7
20260506201522 12 238 4.8 6.4 0.00 2.82 0.79 54 1012.7
20260506201008 12 345 3.2 12.9 0.00 2.82 0.79 56 1012.7
20260506200508 12 307 4.8 12.9 0.00 2.82 0.79 54 1012.7
20260506200012 12 265 1.6 11.3 0.00 2.82 0.79 53 1012.7
20260506195506 12 291 3.2 11.3 0.00 2.82 0.79 54 1012.6
20260506195007 12 278 3.2 11.3 0.00 2.82 0.79 53 1012.7
20260506194519 12 274 3.2 11.3 0.00 2.82 0.79 55 1012.7
20260506194007 12 304 3.2 9.7 0.00 2.82 0.79 56 1012.8
20260506193508 12 305 3.2 9.7 0.00 2.82 0.79 56 1012.8
20260506193020 12 281 1.6 8.0 0.00 2.82 0.79 58 1012.9
20260506192514 12 30 3.2 9.7 0.00 2.82 0.79 55 1012.9
20260506192010 12 275 0.0 9.7 0.00 2.82 0.79 60 1012.9
20260506191525 12 24 1.6 9.7 0.00 2.82 0.79 58 1012.8
20260506190025 12 32 1.6 16.1 0.00 2.82 0.79 55 1012.8
20260506185505 12 323 3.2 16.1 0.00 2.82 0.79 56 1012.5
20260506185005 12 307 1.6 12.9 0.00 2.82 0.79 56 1012.4
20260506184515 12 5 3.2 16.1 0.00 2.82 0.79 55 1012.5
20260506184008 12 264 8.0 17.7 0.00 2.82 0.79 53 1012.5
20260506183508 13 247 9.7 17.7 0.00 2.82 0.79 53 1012.6
20260506183018 13 290 3.2 14.5 0.00 2.82 0.79 56 1012.7
20260506182508 13 185 3.2 11.3 0.00 2.82 0.79 55 1012.7
20260506182010 13 283 3.2 11.3 0.00 2.82 0.79 57 1012.5
20260506181522 13 315 3.2 14.5 0.00 2.82 0.79 54 1012.8
20260506180515 13 5 6.4 17.7 0.00 2.82 0.79 51 1012.9
20260506180026 13 254 4.8 17.7 0.00 2.82 0.79 56 1012.8
20260506174525 13 352 4.8 19.3 0.00 2.82 0.79 58 1012.8
20260506174006 13 23 4.8 14.5 0.00 2.82 0.79 53 1012.8
20260506173507 13 283 6.4 14.5 0.00 2.82 0.79 55 1012.7
20260506173020 13 321 1.6 14.5 0.00 2.82 0.79 51 1012.6
20260506172507 13 315 3.2 14.5 0.00 2.82 0.79 56 1012.7
20260506172003 13 290 6.4 14.5 0.00 2.82 0.79 55 1012.7
20260506171509 13 5 3.2 16.1 0.00 2.82 0.79 58 1012.7
20260506171003 13 263 8.0 16.1 0.00 2.82 0.79 53 1012.6
20260506170506 13 205 3.2 16.1 0.00 2.82 0.79 57 1012.6
20260506170006 13 352 6.4 14.5 0.00 2.82 0.79 56 1012.5
20260506165504 13 259 8.0 14.5 0.00 2.82 0.79 58 1012.5
20260506165004 13 44 3.2 12.9 0.00 2.82 0.79 61 1012.7
20260506164514 13 342 4.8 12.9 0.00 2.82 0.79 55 1012.7
20260506164008 13 301 3.2 14.5 0.00 2.82 0.79 62 1012.8
20260506163506 13 352 3.2 14.5 0.00 2.82 0.79 62 1012.8
20260506163030 12 350 4.8 12.9 0.00 2.82 0.79 59 1012.7
20260506162504 12 267 4.8 14.5 0.00 2.82 0.79 59 1012.5
20260506162009 13 300 6.4 14.5 0.00 2.82 0.79 55 1012.6
20260506161504 12 242 3.2 9.7 0.00 2.82 0.79 64 1012.6
20260506161003 12 263 3.2 17.7 0.00 2.82 0.79 65 1012.7
20260506160506 12 53 6.4 17.7 0.00 2.82 0.79 60 1012.7
20260506160015 12 253 4.8 12.9 0.00 2.82 0.79 65 1012.6
20260506155504 12 287 4.8 9.7 0.00 2.82 0.79 66 1012.5
20260506155005 12 300 4.8 8.0 0.00 2.82 0.79 64 1012.4
20260506154510 11 360 1.6 8.0 0.00 2.82 0.79 68 1012.4
20260506154008 11 229 3.2 12.9 0.00 2.82 0.79 66 1012.4
20260506153506 11 273 4.8 12.9 0.00 2.82 0.79 65 1012.3
20260506153016 11 196 3.2 11.3 0.00 2.82 0.79 68 1012.1
20260506152506 11 271 4.8 12.9 0.00 2.82 0.79 66 1011.9
20260506152006 11 303 4.8 12.9 0.00 2.82 0.79 68 1011.9
20260506151524 11 40 4.8 12.9 0.00 2.82 0.79 67 1012.0
20260506151005 11 271 6.4 14.5 0.00 2.82 0.79 69 1011.9
20260506150508 11 14 4.8 14.5 0.00 2.82 0.79 69 1011.8
20260506150005 10 298 3.2 11.3 0.00 2.82 0.79 71 1011.8
20260506145508 10 266 4.8 9.7 0.00 2.82 0.79 71 1011.9
20260506145005 10 255 6.4 9.7 0.00 2.82 0.79 68 1012.0
20260506144509 10 327 3.2 9.7 0.00 2.82 0.79 75 1011.8
20260506144004 10 329 3.2 9.7 0.00 2.82 0.79 73 1011.8
20260506143506 10 314 1.6 9.7 0.00 2.82 0.79 72 1011.7
20260506143012 9 280 1.6 9.7 0.00 2.82 0.79 73 1011.8
20260506142508 9 309 4.8 9.7 0.00 2.82 0.79 72 1011.7
20260506142006 9 321 1.6 12.9 0.00 2.82 0.79 75 1011.6
20260506141518 9 259 1.6 12.9 0.00 2.82 0.79 76 1011.6
20260506141008 9 248 6.4 11.3 0.00 2.82 0.79 75 1011.5
20260506140510 9 277 0.0 11.3 0.00 2.82 0.79 76 1011.3
20260506140020 8 320 1.6 12.9 0.00 2.82 0.79 76 1011.1
20260506135510 8 286 1.6 12.9 0.00 2.82 0.79 78 1011.3
20260506135011 8 265 3.2 8.0 0.00 2.82 0.79 79 1011.4
20260506134524 8 324 3.2 8.0 0.00 2.82 0.79 82 1011.1
20260506134016 8 288 1.6 9.7 0.00 2.82 0.79 82 1011.0
20260506133508 8 263 1.6 9.7 0.00 2.82 0.79 83 1011.0
20260506133026 7 276 1.6 11.3 0.00 2.82 0.79 84 1011.0
20260506132511 7 269 3.2 11.3 0.00 2.82 0.79 84 1011.0
20260506132005 7 286 3.2 9.7 0.00 2.82 0.79 84 1011.0
20260506131515 7 281 3.2 9.7 0.00 2.82 0.79 84 1011.2
20260506131007 7 302 1.6 6.4 0.00 2.82 0.79 86 1011.2
20260506130513 7 307 1.6 6.4 0.00 2.82 0.79 87 1010.9
20260506130020 7 304 1.6 6.4 0.00 2.82 0.79 87 1011.1
20260506125507 7 294 1.6 8.0 0.00 2.82 0.79 88 1010.9
20260506125008 7 257 3.2 8.0 0.00 2.82 0.79 87 1011.0
20260506124521 6 255 1.6 6.4 0.00 2.82 0.79 88 1010.9
20260506124010 6 298 1.6 6.4 0.00 2.82 0.79 89 1010.9
20260506123509 6 261 1.6 6.4 0.00 2.82 0.79 89 1010.8
20260506123027 6 301 3.2 4.8 0.00 2.82 0.79 89 1010.5
20260506122511 6 291 1.6 6.4 0.00 2.82 0.79 89 1010.5
20260506122009 6 352 1.6 6.4 0.00 2.82 0.79 89 1010.3
20260506121530 6 266 0.0 6.4 0.00 2.82 0.79 90 1010.4
20260506121010 6 332 3.2 9.7 0.00 2.82 0.79 89 1010.2
20260506120507 6 309 1.6 9.7 0.00 2.82 0.79 89 1010.1
20260506120018 6 329 1.6 6.4 0.00 2.82 0.79 90 1010.2
20260506115509 6 24 0.0 3.2 0.00 2.82 0.79 91 1010.0
20260506115008 6 280 0.0 4.8 0.00 2.82 0.79 91 1010.0
20260506114522 6 289 1.6 4.8 0.00 2.82 0.79 91 1010.0
20260506114008 6 330 0.0 4.8 0.00 2.82 0.79 91 1010.0
20260506113510 6 336 0.0 8.0 0.00 2.82 0.79 92 1009.7
20260506113023 6 11 1.6 8.0 0.00 2.82 0.79 92 1009.4
20260506112514 6 37 1.6 8.0 0.00 2.82 0.79 92 1009.2
20260506112004 6 302 3.2 6.4 0.00 2.82 0.79 92 1009.3
20260506111514 6 276 1.6 6.4 0.00 2.82 0.79 92 1009.1
20260506111004 6 360 3.2 9.7 0.00 2.82 0.79 92 1008.9
20260506110507 6 352 4.8 8.0 0.00 2.82 0.79 93 1008.9
20260506110016 6 36 3.2 8.0 0.00 2.82 0.79 93 1009.0
20260506105508 6 308 1.6 6.4 0.00 2.82 0.79 93 1008.7
20260506105007 6 243 3.2 6.4 0.00 2.82 0.79 94 1009.1
20260506104522 6 11 1.6 11.3 0.00 2.82 0.79 94 1009.2
20260506104000 6 279 4.8 11.3 0.00 2.82 0.79 94 1009.4
20260506103504 6 265 1.6 8.0 0.00 2.82 0.79 94 1009.1
20260506103008 6 352 3.2 8.0 0.00 2.82 0.79 94 1008.7
20260506102504 6 285 1.6 8.0 0.00 2.82 0.79 94 1008.5
20260506102004 6 350 3.2 11.3 0.00 2.82 0.79 95 1008.5
20260506101511 6 331 3.2 11.3 0.00 2.82 0.79 95 1008.7
20260506101003 6 262 4.8 9.7 0.00 2.82 0.79 95 1008.9
20260506100504 6 330 3.2 8.0 0.00 2.82 0.79 95 1009.0
20260506095505 6 346 3.2 8.0 0.00 2.82 0.79 95 1008.3
20260506095009 6 302 3.2 9.7 0.00 2.82 0.79 95 1008.3
20260506093029 6 327 1.6 6.4 0.03 2.82 0.79 95 1007.6
20260506092501 6 309 1.6 6.4 0.05 2.82 0.79 95 1007.8
20260506092004 6 352 3.2 9.7 0.08 2.82 0.79 95 1007.9
20260506091509 6 341 1.6 9.7 0.10 2.82 0.79 95 1007.6
20260506091006 6 34 3.2 8.0 0.13 2.82 0.79 95 1007.4
20260506090504 6 360 3.2 11.3 0.15 2.82 0.79 95 1007.9
20260506090016 6 352 1.6 11.3 0.18 2.82 0.79 95 1007.8
20260506085503 6 349 1.6 8.0 0.23 2.82 0.79 95 1007.8
20260506085004 6 286 1.6 8.0 0.25 2.82 0.79 95 1007.8
20260506084517 6 311 3.2 8.0 0.25 2.82 0.79 95 1007.8
20260506084007 6 336 3.2 8.0 0.23 2.79 0.76 95 1008.0
20260506083506 6 320 1.6 8.0 0.23 2.79 0.76 95 1008.1
20260506083022 6 302 4.8 8.0 0.23 2.79 0.76 95 1008.1
20260506082508 6 5 3.2 9.7 0.20 2.77 0.74 95 1008.2
20260506082012 6 300 4.8 9.7 0.18 2.74 0.71 95 1008.2
20260506081524 6 33 3.2 9.7 0.15 2.72 0.69 95 1008.2
20260506081004 6 341 1.6 9.7 0.13 2.67 0.66 95 1008.2
20260506080504 6 338 4.8 11.3 0.10 2.64 0.64 94 1008.1
20260506073508 7 5 3.2 14.5 0.08 2.57 0.53 95 1007.6
20260506073022 7 30 4.8 12.9 0.10 2.57 0.53 95 1007.7
20260506072008 7 334 3.2 12.9 0.13 2.57 0.53 95 1007.5
20260506071530 7 333 3.2 19.3 0.13 2.57 0.53 95 1007.6
20260506071012 7 265 4.8 19.3 0.15 2.57 0.53 95 1007.6
20260506070509 7 328 3.2 8.0 0.18 2.57 0.53 95 1007.9
20260506062512 7 315 3.2 14.5 0.25 2.46 0.43 95 1007.9
20260506062009 7 298 3.2 14.5 0.23 2.44 0.41 95 1007.7
20260506061531 7 280 4.8 9.7 0.23 2.44 0.41 95 1007.7
20260506061010 7 335 1.6 6.4 0.20 2.41 0.38 95 1007.7
20260506051001 7 17 3.2 14.5 0.18 2.21 0.18 94 1007.8
20260506050501 7 19 3.2 12.9 0.18 2.21 0.18 94 1007.9
20260506045004 7 265 3.2 12.9 0.15 2.18 0.15 94 1008.2
20260506044511 7 317 3.2 12.9 0.13 2.16 0.13 94 1008.2
20260506044005 7 321 1.6 12.9 0.13 2.13 0.10 94 1008.3
20260506043505 7 360 1.6 12.9 0.08 2.08 0.05 94 1008.3
20260506043015 7 312 1.6 9.7 0.05 2.06 0.03 94 1008.2
20260506042507 7 16 3.2 12.9 0.05 2.03 0.00 94 1008.1
20260506042007 7 284 1.6 12.9 0.05 2.03 0.00 94 1008.1
20260506041505 7 321 3.2 9.7 0.05 2.03 0.00 94 1007.9
20260506041001 7 346 1.6 9.7 0.08 2.03 0.00 94 1007.9
20260506040500 7 347 1.6 8.0 0.10 2.03 0.00 94 1007.9
20260506040014 8 20 3.2 9.7 0.13 2.03 0.00 94 1007.9
20260506035504 8 40 3.2 9.7 0.15 2.03 2.03 95 1007.8
20260506034506 8 301 4.8 14.5 0.23 2.03 2.03 94 1008.0
20260506034005 8 318 4.8 14.5 0.23 2.01 2.01 94 1008.0
20260506033504 8 348 4.8 12.9 0.28 2.01 2.01 94 1007.9
20260506033010 8 336 4.8 12.9 0.30 2.01 2.01 94 1008.1
20260506032505 8 350 4.8 17.7 0.30 1.98 1.98 94 1008.1
20260506032007 8 344 6.4 17.7 0.30 1.98 1.98 94 1008.2
20260506031533 8 346 4.8 16.1 0.33 1.98 1.98 94 1008.3
20260506031013 8 9 4.8 12.9 0.30 1.96 1.96 94 1008.4
20260506030507 8 335 4.8 9.7 0.30 1.93 1.93 95 1008.7
20260506030004 8 9 4.8 14.5 0.30 1.91 1.91 95 1008.7
20260506025503 8 10 1.6 14.5 0.30 1.88 1.88 95 1008.7
20260506025004 8 5 1.6 12.9 0.28 1.83 1.83 95 1008.6
20260506024515 8 80 1.6 8.0 0.28 1.80 1.80 95 1008.9
20260506023505 8 295 1.6 11.3 0.25 1.73 1.73 95 1008.9
20260506023007 9 319 4.8 11.3 0.25 1.70 1.70 95 1008.9
20260506022005 9 306 3.2 12.9 0.28 1.68 1.68 95 1008.8
20260506021514 9 321 4.8 12.9 0.30 1.65 1.65 95 1008.6